Regional Weather Roundup
Issued by NWS

Home | Current Version | Previous Version | Text Only | Print | Product List | Glossary Off
Versions: 1 2 3 4 5 6 7 8 9 10 11 12 13 14 15 16 17 18 19 20 21 22 23 24 25 26 27 28 29 30 31 32 33 34 35 36 37 38 39 40 41 42 43 44 45 46 47 48 49 50

000
ASUS45 KTFX 100410
RWRMT
MONTANA REGIONAL WEATHER ROUNDUP
NATIONAL WEATHER SERVICE GREAT FALLS MT
900 PM MST TUE FEB 09 2016

NOTE: "FAIR" INDICATES FEW OR NO CLOUDS BELOW 12000 FEET WITH NO
SIGNIFICANT WEATHER AND/OR OBSTRUCTIONS TO VISIBILITY.

MTZ001>007-043-100500-
WEST OF THE DIVIDE

CITY           SKY/WX    TMP DP  RH WIND       PRES   REMARKS
KALISPELL      CLEAR     24  23  96 CALM      30.25F
MISSOULA       CLEAR     30  27  88 CALM      30.28F
BUTTE          CLOUDY    20  15  81 S6        30.29F WCI  12
MULLAN PASS    CLEAR     43  26  51 SW6       30.26S
ANACONDA         N/A     30  27  86 SW5       30.28F
DEER LODGE       N/A     28  25  86 W7        30.30S WCI  21
HAMILTON         N/A     34  28  80 CALM      30.27F
LIBBY            N/A     27  25  93 CALM      30.26S
$$

MTZ008-052>055-100500-
SOUTHWEST MONTANA

CITY           SKY/WX    TMP DP  RH WIND       PRES   REMARKS
BOZEMAN        CLOUDY    22  18  85 SE7       30.26F WCI  13
DILLON         CLOUDY    35  25  66 SW15      30.29F WCI  25
THREE FORKS      N/A     27  27 100 CALM      30.22F
TWIN BRIDGES     N/A     29  22  75 SE7       30.24F WCI  22
$$

MTZ009-010-012-014-046-048-049-054-100500-
EAST SLOPES AND CENTRAL MONTANA

CITY           SKY/WX    TMP DP  RH WIND       PRES   REMARKS
CUT BANK       CLOUDY    45  27  49 W7        30.06F
GREAT FALLS    CLOUDY    44  21  40 SW14      30.11S
HELENA         CLOUDY    34  27  75 CALM      30.24F
CHOTEAU          N/A     59  18  20 W7        30.10F
CONRAD           N/A     47  26  44 N9        30.08F
$$

MTZ011-013-016-021-045-047-050-051-100500-
NORTH CENTRAL MONTANA

CITY           SKY/WX    TMP DP  RH WIND       PRES   REMARKS
HAVRE          CLOUDY    43  27  53 W8        30.02R
LEWISTOWN      CLOUDY    43  25  49 SW13      30.09F
CHINOOK          N/A     28  21  74 CALM      30.00F
$$

MTZ017>020-022>027-061-062-100500-
NORTHEAST MONTANA

CITY           SKY/WX    TMP DP  RH WIND       PRES   REMARKS
GLASGOW        PTCLDY    39  31  72 CALM      29.97F
JORDAN           N/A     31  28  89 W3        30.00F
SIDNEY         CLOUDY    28  21  74 CALM      29.97F
WOLF POINT     CLOUDY    30  27  88 W5        29.97F
PLENTYWOOD       N/A     28  25  86 E5        29.95F
POPLAR           N/A     34  27  75 W6        29.97F WCI  29
$$

MTZ028>42-056>058-100500-
SOUTHCENTRAL AND SOUTHEAST MONTANA

CITY           SKY/WX    TMP DP  RH WIND       PRES   REMARKS
BAKER          CLOUDY    34  26  72 W7        30.01F WCI  28
BILLINGS       CLOUDY    46  22  38 SW25      30.09F
LIVINGSTON     CLOUDY    42  24  49 NW9       30.21F
MILES CITY     CLEAR     37  28  70 W7        30.01F WCI  32
FORSYTH          N/A     46  25  42 W3        30.04F
LAUREL           N/A     44  21  40 SW13      30.08F
ROUNDUP          N/A     45  20  37 S3        29.98F
$$

REGIONAL REPORTS...DAKOTAS

CITY           SKY/WX    TMP DP  RH WIND       PRES   REMARKS
WILLISTON      CLOUDY    30  23  75 CALM      29.97F
MINOT          LGT SNOW  21  14  74 E12       30.05S WCI   9
DICKINSON      CLOUDY    26  20  77 S10       29.96F WCI  16
BEACH            N/A     32  28  86 CALM      30.00F
CROSBY         CLOUDY    30  28  93 SE5       29.99F
TIOGA            N/A     25  25 100 E5        30.02F
WATFORD CITY     N/A     28  23  80 CALM      29.97F
BISMARCK       CLOUDY    35  22  58 E5        30.04F
GRAND FORKS    CLOUDY     4  -3  73 N9        30.24F WCI -10
FARGO          CLOUDY     5  -1  76 NE9       30.21F WCI  -9
BUFFALO SD       N/A     32  26  78 W9        29.94F WCI  24
RAPID CITY     CLEAR     31  26  82 CALM      30.05F
$$

REGIONAL REPORTS...WYOMING/IDAHO/WASHINGTON

CITY           SKY/WX    TMP DP  RH WIND       PRES   REMARKS
GILLETTE       CLEAR     41  28  60 W10       30.12F
SHERIDAN       CLEAR     38  22  52 S7        30.11R
BUFFALO WY     CLEAR     44  22  41 S10       30.14F
CODY           CLOUDY    39  19  45 NW5       30.20F
YELLOWSTONE LA   N/A     17  13  84 NW3       30.45F
IDAHO FALLS    FOG       15  12  88 N8        30.46F VSB 1/2 WCI   4
SALMON         CLEAR     12   9  85 SE3       30.44F
BOISE          CLEAR     32  29  88 CALM      30.46R
SPOKANE        CLEAR     35  31  85 W6        30.24S WCI  30
$$

REGIONAL REPORTS...ALBERTA

CITY           SKY/WX    TMP DP  RH WIND       PRES   REMARKS
EDMONTON       PTCLDY    41  25  52 NW9       29.95R
CALGARY        PTCLDY    46  16  29 N5        29.96F
LETHBRIDGE     CLEAR     52  27  37 W22       29.98F
MEDICINE HAT   CLEAR     34  28  80 SW8       29.95F WCI  27
WATERTON GATE    N/A     52  23  32 SW28G39     N/A
CARDSTON         N/A     55  21  26 W12G17      N/A
MILK RIVER       N/A     41  27  56 W15         N/A
ONEFOUR          N/A     45  27  49 NW15        N/A
$$

REGIONAL REPORTS...SASKATCHEWAN

CITY           SKY/WX    TMP DP  RH WIND       PRES   REMARKS
SWIFT CURRENT  MOCLDY    37  30  75 SW12      29.88F WCI  30
REGINA         CLOUDY    28  25  86 SE10      29.90F WCI  19
SASKATOON      MOCLDY    28  27  93 SE9       29.89F WCI  20
CYPRESS HILLS    N/A     48  16  27 NW8         N/A
VAL MARIE        N/A     32  27  80 SW3         N/A
ROCKGLEN         N/A     39  32  75 W13         N/A  WCI  32
ASSINIBOIA       N/A     32  27  80 NW6         N/A  WCI  26
$$



USA.gov is the U.S. government's official web portal to all federal, state and local government web resources and services.